Weather History for Kodiak, AK

Change the Weather History Date:

Friday, October 29, 2010

  Actual Average Record
Temperature  
Mean Temperature 38 °F 37 °F  
Max Temperature 43 °F 43 °F 52 °F (1978)
Min Temperature 33 °F 32 °F 12 °F (1976)
Degree Days  
Heating Degree Days 27 28  
Month to date heating degree days 672 704  
Since 1 July heating degree days 1744 1802  
Cooling Degree Days 0    
Month to date cooling degree days 0  
Year to date cooling degree days 0  
Moisture  
Dew Point 25 °F    
Average Humidity 0    
Maximum Humidity 0    
Minimum Humidity 0    
Precipitation  
Precipitation T in 0.26 in 3.63 in (1974)
Month to date precipitation 6.47 7.77  
Year to date precipitation 61.59 61.91  
Snow  
Snow 0.00 in 0.00 in 9.30 in (1964)
Month to date snowfall 0.0 0.9  
Since 1 July snowfall 0.0 0.9  
Since 1 September snowfall 0.0 0.9  
Snow Depth 0.00 in    
Sea Level Pressure  
Sea Level Pressure 29.15 in    
Wind  
Wind Speed 7 mph (WSW)    
Max Wind Speed 22 mph    
Max Gust Speed 33 mph    
Visibility 10 miles    
Events      
T = Trace of Precipitation, MM = Missing Value Source: NWS Daily Summary

Daily Weather History Graph

Daily Weather History Graph

Search for Another Location

Airport:

Trip Planner

Search our weather history database for the weather conditions in past years. The results will help you decide how hot, cold, wet, or windy it might be!

Date:

Astronomy

Oct. 29, 2010 Rise Set
Actual Time 9:16 AM AKDT 6:29 PM AKDT
Civil Twilight 8:35 AM AKDT 7:10 PM AKDT
Nautical Twilight 7:49 AM AKDT 7:56 PM AKDT
Astronomical Twilight 7:04 AM AKDT 8:41 PM AKDT
Moon No Moon Rise 3:45 PM AKDT (10/29)
Length of Visible Light 10h 35m
Length of Day
9h 12m
Waning Gibbous, 58% of the Moon is Illuminated
Oct 29
Waning Gibbous
Oct 30
Last Quarter
Nov 5
New
Nov 13
First Quarter
Nov 21
Full

Hourly Weather History & Observations

Time (AKDT) Temp. Windchill Dew Point Humidity Pressure Visibility Wind Dir Wind Speed Gust Speed Precip Events Conditions
12:53 AM 39.0 °F 29.0 °F 26.1 °F 60% 29.17 in 10.0 mi WSW 20.7 mph 26.5 mph N/A   Partly Cloudy
1:53 AM 39.0 °F 33.4 °F 25.0 °F 57% 29.17 in 10.0 mi SW 8.1 mph 21.9 mph N/A   Partly Cloudy
2:53 AM 39.0 °F 34.0 °F 25.0 °F 57% 29.17 in 10.0 mi SSW 6.9 mph - N/A   Partly Cloudy
3:53 AM 39.9 °F 33.9 °F 25.0 °F 55% 29.17 in 10.0 mi West 9.2 mph - N/A   Mostly Cloudy
4:53 AM 39.0 °F 34.8 °F 25.0 °F 57% 29.16 in 10.0 mi West 5.8 mph - N/A   Scattered Clouds
5:53 AM 39.0 °F - 26.1 °F 60% 29.16 in 10.0 mi Calm Calm - N/A   Mostly Cloudy
6:53 AM 37.9 °F 32.7 °F 25.0 °F 60% 29.15 in 10.0 mi SW 6.9 mph - N/A   Mostly Cloudy
7:53 AM 39.0 °F - 25.0 °F 57% 29.14 in 10.0 mi Calm Calm - N/A   Mostly Cloudy
8:53 AM 39.0 °F 32.8 °F 25.0 °F 57% 29.14 in 10.0 mi WSW 9.2 mph - N/A   Mostly Cloudy
9:53 AM 39.9 °F 32.9 °F 24.1 °F 53% 29.13 in 10.0 mi WSW 11.5 mph - N/A   Mostly Cloudy
10:53 AM 39.9 °F 37.8 °F 26.1 °F 58% 29.13 in 10.0 mi SW 3.5 mph - N/A   Mostly Cloudy
11:53 AM 39.9 °F 37.8 °F 26.1 °F 58% 29.14 in 10.0 mi SSW 3.5 mph - N/A   Mostly Cloudy
12:53 PM 42.1 °F 36.6 °F 25.0 °F 51% 29.14 in 10.0 mi WNW 9.2 mph - N/A   Mostly Cloudy
1:53 PM 43.0 °F 35.1 °F 27.0 °F 53% 29.14 in 10.0 mi WSW 17.3 mph 25.3 mph N/A   Mostly Cloudy
2:53 PM 42.1 °F 33.9 °F 28.9 °F 60% 29.15 in 10.0 mi West 17.3 mph 23.0 mph 0.00 in   Mostly Cloudy
3:53 PM 42.1 °F 35.2 °F 26.1 °F 53% 29.14 in 10.0 mi West 12.7 mph 24.2 mph N/A   Mostly Cloudy
4:53 PM 42.1 °F 36.6 °F 25.0 °F 51% 29.14 in 10.0 mi SW 9.2 mph - N/A   Mostly Cloudy
5:53 PM 41.0 °F 35.2 °F 24.1 °F 51% 29.15 in 10.0 mi SSW 9.2 mph - N/A   Mostly Cloudy
6:53 PM 39.0 °F 35.7 °F 23.0 °F 53% 29.15 in 10.0 mi SSW 4.6 mph - N/A   Mostly Cloudy
7:53 PM 39.0 °F 34.8 °F 23.0 °F 53% 29.16 in 10.0 mi WSW 5.8 mph - N/A   Overcast
8:53 PM 35.1 °F 31.0 °F 25.0 °F 67% 29.17 in 10.0 mi WNW 4.6 mph - N/A   Overcast
9:53 PM 35.1 °F 32.2 °F 26.1 °F 70% 29.17 in 10.0 mi West 3.5 mph - N/A   Overcast
10:53 PM 37.0 °F 34.5 °F 25.0 °F 62% 29.16 in 10.0 mi SW 3.5 mph - N/A   Overcast
11:53 PM 34.0 °F - 25.0 °F 70% 29.17 in 10.0 mi Calm Calm - N/A   Overcast